Regional Weather Roundup
Issued by NWS

Home | Current Version | Previous Version | Graphics & Text | Print | Product List | Glossary On
Versions: 1 2 3 4 5 6 7 8 9 10 11 12 13 14 15 16 17 18 19 20 21 22 23 24 25 26 27 28 29 30 31 32 33 34 35 36 37 38 39 40 41 42 43 44 45 46 47 48 49 50
000
ASUS45 KABQ 240210
RWRNM
WEATHER ROUNDUP FOR NEW MEXICO
NATIONAL WEATHER SERVICE ALBUQUERQUE NM
800 PM MDT THU OCT 23 2014

NOTE: "FAIR" MEANS FEW OR NO CLOUDS BELOW 12,000 FEET AGL WITH NO
       SIGNIFICANT WEATHER OR OBSTRUCTIONS TO VISION.

      THIS PRODUCT IS RELEASED AS TWO VERSIONS.  ONE VERSION NEAR
      THE TOP OF THE HOUR CONTAINING PRELIMINARY DATA FROM ALBUQUERQUE
      AND OTHER STATIONS.  A FINAL VERSION WITH ADDITIONAL DATA IS
      ISSUED ABOUT 10 MINUTES AFTER THE HOUR.

NMZ501-503-504-510>518-240300-
NORTHWEST PLATEAU/NORTHCENTRAL MOUNTAINS

CITY           SKY/WX    TMP DP  RH WIND       PRES   REMARKS
FARMINGTON     CLEAR     60  33  36 CALM      30.24R
LOS ALAMOS     CLEAR     60  30  32 W5        30.34R
SANTA FE       CLEAR     55  31  39 N6        30.27R
TAOS           CLEAR     48  28  46 E5        30.32S
ANGEL FIRE     FAIR      52  27  38 S6        30.38S

$$
NMZ402-403-502-505>509-240300-
WESTCENTRAL MOUNTAINS/SOUTHWEST MOUNTAINS

CITY           SKY/WX    TMP DP  RH WIND       PRES   REMARKS
GALLUP         MOCLDY    59  35  40 SW6       30.30R
GRANTS         CLEAR     54  28  37 W7        30.32S
SILVER CITY    CLEAR     61  45  55 NW3       30.26R

$$
NMZ407-409-411-412-240300-
SOUTHERN DESERTS

CITY           SKY/WX    TMP DP  RH WIND       PRES   REMARKS
LORDSBURG      FAIR      61  45  55 MISG      30.17R
DEMING         CLEAR     64  50  60 CALM      30.18R
LAS CRUCES     CLEAR     68  52  56 SW3       30.20R
HOLLOMAN AFB   CLEAR     67  49  52 CALM      30.15R
T OR C         CLEAR     68  46  45 W3        30.19R

$$
NMZ519>523-240300-
CENTRAL VALLEYS/CENTRAL HIGHLANDS

CITY           SKY/WX    TMP DP  RH WIND       PRES   REMARKS
ALBUQUERQUE    PTCLDY    64  37  36 S3        30.23R
DOUBLE EAGLE   CLEAR     57  36  44 NW8       30.26R
MORIARTY ARPT  FAIR      51  36  56 SW6       30.28S
CLINES CORNERS CLEAR     56  32  40 W16       30.29R
BELEN          NOT AVBL
SOCORRO        FAIR      64  43  47 SW7       30.20S

$$
NMZ524>526-539-540-240300-
SOUTHCENTRAL MOUNTAINS

CITY           SKY/WX    TMP DP  RH WIND       PRES   REMARKS
RUIDOSO        CLEAR     57  39  51 W9        30.33R

$$
NMZ527>531-240300-
NORTHEAST HIGHLANDS/NORTHEAST PLAINS

CITY           SKY/WX    TMP DP  RH WIND       PRES   REMARKS
LAS VEGAS      CLEAR     56  30  37 N12       30.28R
RATON          CLEAR     53  33  46 N7        30.24R
CLAYTON        CLEAR     60  46  59 NE5       30.18R

$$
NMZ532>537-240300-
EASTCENTRAL PLAINS

CITY           SKY/WX    TMP DP  RH WIND       PRES   REMARKS
TUCUMCARI      CLEAR     63  41  44 SE6       30.11R
CANNON AFB     CLEAR     63  47  57 SW8       30.15R
CLOVIS AIRPORT CLEAR     63  45  51 SW8       30.17R

$$
NMZ028-029-538-240300-
SOUTHEAST PLAINS

CITY           SKY/WX    TMP DP  RH WIND       PRES   REMARKS
ROSWELL        CLEAR     65  59  81 S9        30.12R
CARLSBAD       CLEAR     64  58  80 S9        30.11R
HOBBS          CLEAR     63  54  72 S6        30.15S


$$



USA.gov is the U.S. government's official web portal to all federal, state and local government web resources and services.